Time,TemperatureF,DewpointF,PressureIn,WindDirection,WindDirectionDegrees,WindSpeedMPH,WindSpeedGustMPH,Humidity,HourlyPrecipIn,Conditions,Clouds,dailyrainin,SoftwareType,DateUTC
2013-03-16 00:00:00,30.2,27.6,30.01,North,355,0.0,0.0,90,0.00,,---,0.01,VWS V14.00,2013-03-16 04:00:00,
2013-03-16 00:08:00,30.1,27.5,30.00,North,355,0.0,0.0,90,0.00,,---,0.00,VWS V14.00,2013-03-16 04:08:00,
2013-03-16 00:16:00,30.1,27.5,30.01,North,355,0.0,0.0,90,0.00,,---,0.00,VWS V14.00,2013-03-16 04:16:00,
2013-03-16 00:24:00,30.0,27.4,30.01,North,355,0.0,0.0,90,0.00,,---,0.00,VWS V14.00,2013-03-16 04:24:00,
2013-03-16 00:30:00,30.0,27.4,30.01,North,355,0.0,0.0,90,0.00,,---,0.00,VWS V14.00,2013-03-16 04:30:00,
2013-03-16 00:32:00,29.9,27.3,30.01,North,355,0.0,0.0,90,0.00,,---,0.00,VWS V14.00,2013-03-16 04:32:00,
2013-03-16 00:40:00,29.9,27.3,30.01,NNW,333,0.0,0.0,90,0.00,,---,0.00,VWS V14.00,2013-03-16 04:40:00,
2013-03-16 00:48:00,29.8,27.0,30.00,NNW,329,0.0,0.0,89,0.00,,---,0.00,VWS V14.00,2013-03-16 04:48:00,
2013-03-16 00:56:00,29.6,26.8,30.00,NNW,329,0.0,0.0,89,0.00,,---,0.00,VWS V14.00,2013-03-16 04:56:00,
2013-03-16 01:04:00,29.4,26.6,30.00,NNW,327,0.0,0.0,89,0.00,,---,0.00,VWS V14.00,2013-03-16 05:04:00,
2013-03-16 01:12:00,29.3,26.5,30.00,NNW,327,0.0,0.0,89,0.00,,---,0.00,VWS V14.00,2013-03-16 05:12:00,
2013-03-16 01:20:00,29.3,26.5,30.00,NNW,328,0.0,0.0,89,0.00,,---,0.00,VWS V14.00,2013-03-16 05:20:00,
2013-03-16 01:28:00,29.1,26.0,30.00,NNW,329,0.0,0.0,88,0.00,,---,0.00,VWS V14.00,2013-03-16 05:28:00,
2013-03-16 01:44:00,28.7,25.3,29.99,North,360,0.0,0.0,87,0.00,,---,0.00,VWS V14.00,2013-03-16 05:44:00,
2013-03-16 01:52:00,28.5,25.1,29.99,North,360,0.0,0.0,87,0.00,,---,0.00,VWS V14.00,2013-03-16 05:52:00,
2013-03-16 02:00:00,28.0,24.4,29.99,NNE,22,0.0,0.0,86,0.00,,---,0.00,VWS V14.00,2013-03-16 06:00:00,
2013-03-16 02:08:00,27.7,23.2,29.99,North,5,0.0,0.0,83,0.00,,---,0.00,VWS V14.00,2013-03-16 06:08:00,
2013-03-16 02:24:00,27.4,22.4,29.99,NNW,346,0.0,0.0,81,0.00,,---,0.00,VWS V14.00,2013-03-16 06:24:00,
2013-03-16 02:30:00,27.3,22.5,29.99,NNW,346,0.0,0.0,82,0.00,,---,0.00,VWS V14.00,2013-03-16 06:30:00,
2013-03-16 02:40:00,27.1,22.6,29.98,NNW,346,0.0,0.0,83,0.00,,---,0.00,VWS V14.00,2013-03-16 06:40:00,
2013-03-16 02:48:00,27.0,22.5,29.98,NNW,346,0.0,0.0,83,0.00,,---,0.00,VWS V14.00,2013-03-16 06:48:00,
2013-03-16 02:56:00,27.0,22.5,29.98,NNW,346,0.0,0.0,83,0.00,,---,0.00,VWS V14.00,2013-03-16 06:56:00,
2013-03-16 03:04:00,27.0,22.5,29.97,NNW,346,0.0,0.0,83,0.00,,---,0.00,VWS V14.00,2013-03-16 07:04:00,
2013-03-16 03:12:00,27.0,22.5,29.97,NNW,346,0.0,0.0,83,0.00,,---,0.00,VWS V14.00,2013-03-16 07:12:00,
2013-03-16 03:20:00,26.9,21.9,29.96,NNW,346,0.0,0.0,81,0.00,,---,0.00,VWS V14.00,2013-03-16 07:20:00,
2013-03-16 03:28:00,26.9,21.9,29.96,NNW,346,0.0,0.0,81,0.00,,---,0.00,VWS V14.00,2013-03-16 07:28:00,
2013-03-16 03:37:00,26.8,21.5,29.95,NNW,346,0.0,0.0,80,0.00,,---,0.00,VWS V14.00,2013-03-16 07:37:00,
2013-03-16 03:45:00,26.8,21.2,29.95,NNW,346,0.0,0.0,79,0.00,,---,0.00,VWS V14.00,2013-03-16 07:45:00,
2013-03-16 03:53:00,27.0,21.7,29.94,ENE,73,0.0,0.0,80,0.00,,---,0.00,VWS V14.00,2013-03-16 07:53:00,
2013-03-16 04:00:00,27.0,21.7,29.94,ESE,117,0.0,0.0,80,0.00,,---,0.00,VWS V14.00,2013-03-16 08:00:00,
2013-03-16 04:09:00,27.0,22.2,29.94,East,93,0.0,0.0,82,0.00,,---,0.00,VWS V14.00,2013-03-16 08:09:00,
2013-03-16 04:17:00,26.9,22.1,29.94,East,93,0.0,0.0,82,0.00,,---,0.00,VWS V14.00,2013-03-16 08:17:00,
2013-03-16 04:25:00,26.8,22.0,29.93,ESE,111,0.0,0.0,82,0.00,,---,0.00,VWS V14.00,2013-03-16 08:25:00,
2013-03-16 04:30:00,26.7,22.0,29.93,ESE,111,0.0,0.0,82,0.00,,---,0.00,VWS V14.00,2013-03-16 08:30:00,
2013-03-16 04:49:00,26.6,21.9,29.93,ESE,105,0.0,0.0,82,0.00,,---,0.00,VWS V14.00,2013-03-16 08:49:00,
2013-03-16 04:57:00,26.5,21.8,29.93,SE,130,0.0,0.0,82,0.00,,---,0.00,VWS V14.00,2013-03-16 08:57:00,
2013-03-16 05:05:00,26.4,22.0,29.93,East,94,0.0,0.0,83,0.00,,---,0.00,VWS V14.00,2013-03-16 09:05:00,
2013-03-16 05:13:00,26.3,21.9,29.94,East,94,0.0,0.0,83,0.00,,---,0.00,VWS V14.00,2013-03-16 09:13:00,
2013-03-16 05:21:00,26.3,22.1,29.93,East,95,0.0,0.0,84,0.00,,---,0.00,VWS V14.00,2013-03-16 09:21:00,
2013-03-16 05:29:00,26.3,22.1,29.93,East,95,0.0,0.0,84,0.00,,---,0.00,VWS V14.00,2013-03-16 09:29:00,
2013-03-16 05:37:00,26.2,22.3,29.93,East,96,0.0,0.0,85,0.00,,---,0.00,VWS V14.00,2013-03-16 09:37:00,
2013-03-16 05:45:00,26.1,22.2,29.92,ESE,107,0.0,0.0,85,0.00,,---,0.00,VWS V14.00,2013-03-16 09:45:00,
2013-03-16 05:53:00,26.0,22.1,29.92,ESE,105,0.0,0.0,85,0.00,,---,0.00,VWS V14.00,2013-03-16 09:53:00,
2013-03-16 06:00:00,25.8,21.9,29.92,NE,44,0.0,0.0,85,0.00,,---,0.00,VWS V14.00,2013-03-16 10:00:00,
2013-03-16 06:09:00,25.7,22.1,29.92,ENE,71,0.0,0.0,86,0.00,,---,0.00,VWS V14.00,2013-03-16 10:09:00,
2013-03-16 06:17:00,25.7,22.1,29.92,East,97,0.0,0.0,86,0.00,,---,0.00,VWS V14.00,2013-03-16 10:17:00,
2013-03-16 06:25:00,25.6,22.0,29.92,East,88,0.0,0.0,86,0.00,,---,0.00,VWS V14.00,2013-03-16 10:25:00,
2013-03-16 06:30:00,25.6,22.0,29.92,East,88,0.0,0.0,86,0.00,,---,0.00,VWS V14.00,2013-03-16 10:30:00,
2013-03-16 06:41:00,25.6,22.0,29.92,East,88,0.0,0.0,86,0.00,,---,0.00,VWS V14.00,2013-03-16 10:41:00,
2013-03-16 06:49:00,25.5,21.9,29.92,ESE,113,0.0,0.0,86,0.00,,---,0.00,VWS V14.00,2013-03-16 10:49:00,
2013-03-16 06:57:00,25.4,22.1,29.93,ESE,113,0.0,0.0,87,0.00,,---,0.00,VWS V14.00,2013-03-16 10:57:00,
2013-03-16 07:05:00,25.2,21.9,29.93,ESE,113,0.0,0.0,87,0.00,,---,0.00,VWS V14.00,2013-03-16 11:05:00,
2013-03-16 07:13:00,25.1,22.0,29.93,ENE,76,0.0,0.0,88,0.00,,---,0.00,VWS V14.00,2013-03-16 11:13:00,
2013-03-16 07:21:00,25.0,22.0,29.93,ENE,76,0.0,0.0,88,0.00,,---,0.00,VWS V14.00,2013-03-16 11:21:00,
2013-03-16 07:29:00,24.9,21.9,29.93,ENE,76,0.0,0.0,88,0.00,,---,0.00,VWS V14.00,2013-03-16 11:29:00,
2013-03-16 07:37:00,24.9,22.1,29.94,ENE,76,0.0,0.0,89,0.00,,---,0.00,VWS V14.00,2013-03-16 11:37:00,
2013-03-16 07:45:00,24.9,22.1,29.94,ENE,76,0.0,0.0,89,0.00,,---,0.00,VWS V14.00,2013-03-16 11:45:00,
2013-03-16 07:53:00,25.0,22.2,29.94,ENE,76,0.0,0.0,89,0.00,,---,0.00,VWS V14.00,2013-03-16 11:53:00,
2013-03-16 08:00:00,25.1,22.3,29.93,ENE,76,0.0,0.0,89,0.00,,---,0.00,VWS V14.00,2013-03-16 12:00:00,
2013-03-16 08:09:00,25.3,22.5,29.93,ENE,76,0.0,0.0,89,0.00,,---,0.00,VWS V14.00,2013-03-16 12:09:00,
2013-03-16 08:17:00,25.3,22.5,29.92,SE,126,0.0,0.0,89,0.00,,---,0.00,VWS V14.00,2013-03-16 12:17:00,
2013-03-16 08:25:00,25.2,22.4,29.93,SE,126,0.0,0.0,89,0.00,,---,0.00,VWS V14.00,2013-03-16 12:25:00,
2013-03-16 08:33:00,25.4,22.6,29.92,SE,126,0.0,0.0,89,0.00,,---,0.00,VWS V14.00,2013-03-16 12:33:00,
2013-03-16 08:42:00,25.8,23.0,29.92,SE,132,0.0,0.0,89,0.00,,---,0.00,VWS V14.00,2013-03-16 12:42:00,
2013-03-16 08:50:00,26.2,23.4,29.92,ENE,76,0.0,0.0,89,0.00,,---,0.00,VWS V14.00,2013-03-16 12:50:00,
2013-03-16 08:58:00,26.1,23.0,29.92,ENE,76,0.0,0.0,88,0.00,,---,0.00,VWS V14.00,2013-03-16 12:58:00,
2013-03-16 09:06:00,26.3,23.2,29.92,SE,137,0.0,0.0,88,0.00,,---,0.00,VWS V14.00,2013-03-16 13:06:00,
2013-03-16 09:14:00,26.4,23.3,29.91,ESE,120,0.0,0.0,88,0.00,,---,0.00,VWS V14.00,2013-03-16 13:14:00,
2013-03-16 09:22:00,26.7,23.6,29.92,ESE,120,0.0,0.0,88,0.00,,---,0.00,VWS V14.00,2013-03-16 13:22:00,
2013-03-16 09:30:00,26.9,23.6,29.91,ESE,103,0.0,0.0,87,0.00,,---,0.00,VWS V14.00,2013-03-16 13:30:00,
2013-03-16 09:38:00,27.1,23.8,29.91,SE,128,0.0,0.0,87,0.00,,---,0.00,VWS V14.00,2013-03-16 13:38:00,
2013-03-16 09:46:00,27.6,24.2,29.91,SE,140,0.0,0.0,87,0.00,,---,0.00,VWS V14.00,2013-03-16 13:46:00,
2013-03-16 09:54:00,27.9,24.3,29.92,SE,140,0.0,0.0,86,0.00,,---,0.00,VWS V14.00,2013-03-16 13:54:00,
2013-03-16 10:00:00,27.8,24.2,29.91,SE,140,0.0,0.0,86,0.00,,---,0.00,VWS V14.00,2013-03-16 14:00:00,
2013-03-16 10:10:00,27.8,24.2,29.90,ESE,106,0.0,0.0,86,0.00,,---,0.00,VWS V14.00,2013-03-16 14:10:00,
2013-03-16 10:18:00,28.0,24.4,29.89,SE,134,0.0,0.0,86,0.00,,---,0.00,VWS V14.00,2013-03-16 14:18:00,
2013-03-16 10:26:00,28.1,24.5,29.90,SE,144,0.0,0.0,86,0.00,,---,0.00,VWS V14.00,2013-03-16 14:26:00,
2013-03-16 10:34:00,28.2,24.6,29.90,SE,136,0.0,0.0,86,0.00,,---,0.00,VWS V14.00,2013-03-16 14:34:00,
2013-03-16 10:42:00,28.1,24.5,29.89,East,94,0.0,0.0,86,0.00,,---,0.00,VWS V14.00,2013-03-16 14:42:00,
2013-03-16 10:50:00,28.1,24.5,29.90,ESE,116,0.0,0.0,86,0.00,,---,0.00,VWS V14.00,2013-03-16 14:50:00,
2013-03-16 10:58:00,28.4,24.8,29.89,SE,134,0.0,0.0,86,0.00,,---,0.00,VWS V14.00,2013-03-16 14:58:00,
2013-03-16 11:06:00,28.4,24.8,29.89,SE,140,0.0,0.0,86,0.00,,---,0.00,VWS V14.00,2013-03-16 15:06:00,
2013-03-16 11:14:00,28.4,24.8,29.89,ESE,109,0.0,0.0,86,0.00,,---,0.00,VWS V14.00,2013-03-16 15:14:00,
2013-03-16 11:22:00,28.6,25.0,29.88,ESE,111,0.0,0.0,86,0.00,,---,0.00,VWS V14.00,2013-03-16 15:22:00,
2013-03-16 11:30:00,28.8,25.1,29.88,East,100,0.0,0.0,86,0.00,,---,0.00,VWS V14.00,2013-03-16 15:30:00,
2013-03-16 11:38:00,28.9,25.2,29.89,SE,141,0.0,0.0,86,0.00,,---,0.00,VWS V14.00,2013-03-16 15:38:00,
2013-03-16 11:54:00,29.0,25.4,29.89,East,85,0.0,0.0,86,0.00,,---,0.00,VWS V14.00,2013-03-16 15:54:00,
2013-03-16 12:00:00,28.9,25.2,29.89,East,101,0.0,0.0,86,0.00,,---,0.00,VWS V14.00,2013-03-16 16:00:00,
2013-03-16 12:10:00,28.9,25.5,29.88,ENE,71,0.0,0.0,87,0.00,,---,0.00,VWS V14.00,2013-03-16 16:10:00,
2013-03-16 12:18:00,28.8,25.1,29.88,East,82,0.0,0.0,86,0.00,,---,0.00,VWS V14.00,2013-03-16 16:18:00,
2013-03-16 12:26:00,28.7,25.0,29.88,East,97,0.0,0.0,86,0.00,,---,0.00,VWS V14.00,2013-03-16 16:26:00,
2013-03-16 12:34:00,28.9,25.2,29.88,East,80,0.0,0.0,86,0.00,,---,0.00,VWS V14.00,2013-03-16 16:34:00,
2013-03-16 12:42:00,29.3,25.6,29.87,East,97,0.0,0.0,86,0.00,,---,0.00,VWS V14.00,2013-03-16 16:42:00,
2013-03-16 12:50:00,29.3,25.4,29.87,ESE,120,4.0,8.0,85,0.00,,---,0.00,VWS V14.00,2013-03-16 16:50:00,
2013-03-16 12:58:00,29.4,25.5,29.88,East,82,5.0,8.0,85,0.00,,---,0.00,VWS V14.00,2013-03-16 16:58:00,
2013-03-16 13:06:00,29.4,25.2,29.88,SE,126,4.0,8.0,84,0.00,,---,0.00,VWS V14.00,2013-03-16 17:06:00,
2013-03-16 13:14:00,29.4,25.2,29.87,NE,51,1.0,8.0,84,0.00,,---,0.00,VWS V14.00,2013-03-16 17:14:00,
2013-03-16 13:22:00,29.4,25.2,29.87,East,83,2.0,8.0,84,0.00,,---,0.00,VWS V14.00,2013-03-16 17:22:00,
2013-03-16 13:30:00,29.5,25.3,29.88,East,88,2.0,8.0,84,0.00,,---,0.00,VWS V14.00,2013-03-16 17:30:00,
2013-03-16 13:38:00,29.4,25.2,29.87,ENE,71,4.0,7.0,84,0.00,,---,0.00,VWS V14.00,2013-03-16 17:38:00,
2013-03-16 13:46:00,29.4,25.2,29.87,ESE,104,4.0,7.0,84,0.00,,---,0.00,VWS V14.00,2013-03-16 17:46:00,
2013-03-16 13:54:00,29.4,25.2,29.87,East,87,9.0,9.0,84,0.00,,---,0.00,VWS V14.00,2013-03-16 17:54:00,
2013-03-16 14:00:00,29.4,25.2,29.87,East,79,3.0,10.0,84,0.00,,---,0.00,VWS V14.00,2013-03-16 18:00:00,
2013-03-16 14:10:00,29.2,25.0,29.88,NE,53,1.0,9.0,84,0.00,,---,0.00,VWS V14.00,2013-03-16 18:10:00,
2013-03-16 14:18:00,29.3,25.4,29.87,NE,52,2.0,9.0,85,0.00,,---,0.00,VWS V14.00,2013-03-16 18:18:00,
2013-03-16 14:30:00,29.2,25.0,29.88,ESE,113,3.0,9.0,84,0.00,,---,0.00,VWS V14.00,2013-03-16 18:30:00,
2013-03-16 14:43:00,29.2,24.7,29.88,North,9,2.0,10.0,83,0.00,,---,0.00,VWS V14.00,2013-03-16 18:43:00,
2013-03-16 14:59:00,29.5,24.4,29.89,NNW,337,1.0,10.0,81,0.00,,---,0.00,VWS V14.00,2013-03-16 18:59:00,
2013-03-16 15:07:00,29.8,24.7,29.89,NE,45,0.0,5.0,81,0.00,,---,0.00,VWS V14.00,2013-03-16 19:07:00,
2013-03-16 15:15:00,29.9,24.5,29.89,SE,133,2.0,7.0,80,0.00,,---,0.00,VWS V14.00,2013-03-16 19:15:00,
2013-03-16 15:23:00,29.7,23.7,29.89,NE,50,1.0,8.0,78,0.00,,---,0.00,VWS V14.00,2013-03-16 19:23:00,
2013-03-16 15:30:00,29.7,24.0,29.89,NE,38,3.0,8.0,79,0.00,,---,0.00,VWS V14.00,2013-03-16 19:30:00,
2013-03-16 15:39:00,29.7,24.0,29.90,NNE,19,2.0,6.0,79,0.00,,---,0.00,VWS V14.00,2013-03-16 19:39:00,
2013-03-16 15:47:00,29.6,23.3,29.90,NE,55,3.0,6.0,77,0.00,,---,0.00,VWS V14.00,2013-03-16 19:47:00,
2013-03-16 15:55:00,29.6,23.6,29.91,North,5,3.0,10.0,78,0.00,,---,0.00,VWS V14.00,2013-03-16 19:55:00,
2013-03-16 16:00:00,29.5,23.5,29.91,ENE,57,3.0,10.0,78,0.00,,---,0.00,VWS V14.00,2013-03-16 20:00:00,
2013-03-16 16:11:00,29.4,23.1,29.92,NE,46,4.0,7.0,77,0.00,,---,0.00,VWS V14.00,2013-03-16 20:11:00,
2013-03-16 16:19:00,29.2,22.9,29.92,North,360,1.0,7.0,77,0.00,,---,0.00,VWS V14.00,2013-03-16 20:19:00,
2013-03-16 16:27:00,29.4,23.4,29.92,ESE,104,2.0,7.0,78,0.00,,---,0.00,VWS V14.00,2013-03-16 20:27:00,
2013-03-16 16:35:00,29.3,22.7,29.93,North,9,1.0,4.0,76,0.00,,---,0.00,VWS V14.00,2013-03-16 20:35:00,
2013-03-16 16:43:00,29.2,22.9,29.93,East,82,7.0,9.0,77,0.00,,---,0.00,VWS V14.00,2013-03-16 20:43:00,
2013-03-16 16:51:00,29.1,22.8,29.93,NE,40,1.0,9.0,77,0.00,,---,0.00,VWS V14.00,2013-03-16 20:51:00,
2013-03-16 16:59:00,29.2,22.6,29.93,NE,34,3.0,9.0,76,0.00,,---,0.00,VWS V14.00,2013-03-16 20:59:00,
2013-03-16 17:07:00,29.3,23.3,29.94,East,93,3.0,6.0,78,0.00,,---,0.00,VWS V14.00,2013-03-16 21:07:00,
2013-03-16 17:16:00,29.5,22.9,29.94,NE,46,0.0,6.0,76,0.00,,---,0.00,VWS V14.00,2013-03-16 21:16:00,
2013-03-16 17:24:00,29.6,23.0,29.95,ENE,72,0.0,6.0,76,0.00,,---,0.00,VWS V14.00,2013-03-16 21:24:00,
2013-03-16 17:30:00,29.7,23.1,29.95,NE,34,2.0,6.0,76,0.00,,---,0.00,VWS V14.00,2013-03-16 21:30:00,
2013-03-16 17:40:00,29.5,22.6,29.95,East,96,2.0,5.0,75,0.00,,---,0.00,VWS V14.00,2013-03-16 21:40:00,
2013-03-16 17:48:00,29.7,23.1,29.95,ESE,102,4.0,5.0,76,0.00,,---,0.00,VWS V14.00,2013-03-16 21:48:00,
2013-03-16 17:56:00,29.8,22.9,29.96,ESE,115,0.0,5.0,75,0.00,,---,0.00,VWS V14.00,2013-03-16 21:56:00,
2013-03-16 18:04:00,29.8,23.2,29.96,East,96,0.0,3.0,76,0.00,,---,0.00,VWS V14.00,2013-03-16 22:04:00,
2013-03-16 18:12:00,29.7,22.8,29.97,NW,325,1.0,3.0,75,0.00,,---,0.00,VWS V14.00,2013-03-16 22:12:00,
2013-03-16 18:20:00,29.6,22.7,29.97,ENE,66,0.0,3.0,75,0.00,,---,0.00,VWS V14.00,2013-03-16 22:20:00,
2013-03-16 18:28:00,29.7,22.8,29.97,NE,40,0.0,3.0,75,0.00,,---,0.00,VWS V14.00,2013-03-16 22:28:00,
2013-03-16 18:36:00,29.5,22.6,29.97,NE,42,0.0,3.0,75,0.00,,---,0.00,VWS V14.00,2013-03-16 22:36:00,
2013-03-16 18:44:00,29.5,22.9,29.98,NE,48,2.0,3.0,76,0.00,,---,0.00,VWS V14.00,2013-03-16 22:44:00,
2013-03-16 18:52:00,29.4,22.5,29.98,NE,48,0.0,3.0,75,0.00,,---,0.00,VWS V14.00,2013-03-16 22:52:00,
2013-03-16 19:00:00,29.4,22.8,29.99,North,10,0.0,3.0,76,0.00,,---,0.00,VWS V14.00,2013-03-16 23:00:00,
2013-03-16 19:08:00,29.3,22.7,29.99,ENE,63,0.0,4.0,76,0.00,,---,0.00,VWS V14.00,2013-03-16 23:08:00,
2013-03-16 19:16:00,29.1,22.5,30.00,ENE,59,1.0,4.0,76,0.00,,---,0.00,VWS V14.00,2013-03-16 23:16:00,
2013-03-16 19:24:00,28.8,22.5,30.00,NNE,27,0.0,4.0,77,0.00,,---,0.00,VWS V14.00,2013-03-16 23:24:00,
2013-03-16 19:30:00,28.5,22.5,30.01,NE,36,0.0,4.0,78,0.00,,---,0.00,VWS V14.00,2013-03-16 23:30:00,
2013-03-16 19:40:00,28.2,22.5,30.01,NNW,336,2.0,3.0,79,0.00,,---,0.00,VWS V14.00,2013-03-16 23:40:00,
2013-03-16 19:48:00,27.8,22.4,30.02,NW,306,2.0,4.0,80,0.00,,---,0.00,VWS V14.00,2013-03-16 23:48:00,
2013-03-16 19:56:00,27.2,22.1,30.02,NW,305,0.0,5.0,81,0.00,,---,0.00,VWS V14.00,2013-03-16 23:56:00,
2013-03-16 20:04:00,26.7,21.7,30.03,North,355,4.0,5.0,81,0.00,,---,0.00,VWS V14.00,2013-03-17 00:04:00,
2013-03-16 20:12:00,26.3,21.6,30.03,NW,321,1.0,5.0,82,0.00,,---,0.00,VWS V14.00,2013-03-17 00:12:00,
2013-03-16 20:20:00,25.9,21.2,30.04,NW,306,2.0,5.0,82,0.00,,---,0.00,VWS V14.00,2013-03-17 00:20:00,
2013-03-16 20:28:00,25.4,20.7,30.05,NW,305,2.0,5.0,82,0.00,,---,0.00,VWS V14.00,2013-03-17 00:28:00,
2013-03-16 20:36:00,25.1,20.7,30.05,NW,313,3.0,4.0,83,0.00,,---,0.00,VWS V14.00,2013-03-17 00:36:00,
2013-03-16 20:44:00,24.9,20.5,30.06,NW,313,2.0,4.0,83,0.00,,---,0.00,VWS V14.00,2013-03-17 00:44:00,
2013-03-16 20:52:00,24.7,20.3,30.06,NW,304,5.0,6.0,83,0.00,,---,0.00,VWS V14.00,2013-03-17 00:52:00,
2013-03-16 21:00:00,24.6,20.5,30.07,WNW,294,2.0,2.0,84,0.00,,---,0.00,VWS V14.00,2013-03-17 01:00:00,
2013-03-16 21:08:00,24.5,20.4,30.07,NNW,340,1.0,4.0,84,0.00,,---,0.00,VWS V14.00,2013-03-17 01:08:00,
2013-03-16 21:16:00,24.4,20.3,30.07,West,261,2.0,4.0,84,0.00,,---,0.00,VWS V14.00,2013-03-17 01:16:00,
2013-03-16 21:24:00,24.4,20.3,30.08,West,261,3.0,4.0,84,0.00,,---,0.00,VWS V14.00,2013-03-17 01:24:00,
2013-03-16 21:30:00,24.3,20.2,30.08,West,261,0.0,4.0,84,0.00,,---,0.00,VWS V14.00,2013-03-17 01:30:00,
2013-03-16 21:40:00,24.3,20.2,30.08,WNW,291,2.0,5.0,84,0.00,,---,0.00,VWS V14.00,2013-03-17 01:40:00,
2013-03-16 21:48:00,24.3,20.2,30.09,WNW,291,0.0,5.0,84,0.00,,---,0.00,VWS V14.00,2013-03-17 01:48:00,
2013-03-16 21:56:00,24.3,20.2,30.09,ENE,76,0.0,5.0,84,0.00,,---,0.00,VWS V14.00,2013-03-17 01:56:00,
2013-03-16 22:04:00,24.3,20.2,30.09,WNW,288,2.0,3.0,84,0.00,,---,0.00,VWS V14.00,2013-03-17 02:04:00,
2013-03-16 22:12:00,24.3,20.2,30.09,WNW,288,1.0,4.0,84,0.00,,---,0.00,VWS V14.00,2013-03-17 02:12:00,
2013-03-16 22:20:00,24.1,19.7,30.10,WNW,289,3.0,5.0,83,0.00,,---,0.00,VWS V14.00,2013-03-17 02:20:00,
2013-03-16 22:28:00,24.0,19.6,30.10,WNW,289,1.0,5.0,83,0.00,,---,0.00,VWS V14.00,2013-03-17 02:28:00,
2013-03-16 22:36:00,23.9,19.5,30.10,WNW,290,2.0,3.0,83,0.00,,---,0.00,VWS V14.00,2013-03-17 02:36:00,
2013-03-16 22:44:00,23.9,19.5,30.10,WNW,291,1.0,4.0,83,0.00,,---,0.00,VWS V14.00,2013-03-17 02:44:00,
2013-03-16 22:52:00,23.9,19.5,30.11,WNW,291,4.0,6.0,83,0.00,,---,0.00,VWS V14.00,2013-03-17 02:52:00,
2013-03-16 23:00:00,23.8,19.1,30.11,WNW,291,2.0,6.0,82,0.00,,---,0.00,VWS V14.00,2013-03-17 03:00:00,
2013-03-16 23:08:00,23.8,19.4,30.11,WNW,291,0.0,3.0,83,0.00,,---,0.00,VWS V14.00,2013-03-17 03:08:00,
2013-03-16 23:17:00,23.8,19.4,30.10,NE,40,0.0,4.0,83,0.00,,---,0.00,VWS V14.00,2013-03-17 03:17:00,
2013-03-16 23:25:00,23.8,19.4,30.10,North,355,1.0,4.0,83,0.00,,---,0.00,VWS V14.00,2013-03-17 03:25:00,
2013-03-16 23:30:00,23.8,19.4,30.10,North,355,0.0,4.0,83,0.00,,---,0.00,VWS V14.00,2013-03-17 03:30:00,
2013-03-16 23:41:00,23.6,18.9,30.10,WNW,291,4.0,5.0,82,0.00,,---,0.00,VWS V14.00,2013-03-17 03:41:00,
2013-03-16 23:49:00,23.6,18.9,30.10,WNW,291,2.0,5.0,82,0.00,,---,0.00,VWS V14.00,2013-03-17 03:49:00,
2013-03-16 23:57:00,23.5,18.8,30.11,NNW,331,2.0,5.0,82,0.00,,---,0.00,VWS V14.00,2013-03-17 03:57:00,